Retour au catalogue

SL-16 DEB

ActifLEO
NORAD 22812·DEBRIS·🇷🇺 Russia

Lancé Dec 25, 1992 depuis Baikonur Cosmodrome

Loading…

Prochains Passages (prochaines 24 heures)

TLE

FraisSource: Space-Track

Époque: Sep 14, 2026, 00:37 UTC

1 22812U 92093JB  26257.02581163  .00000700  00000-0  40313-3 0  9997
2 22812  70.6836 112.8917 0125250 275.7616  82.9233 14.08949155695525

Suivez SL-16 DEB en temps réel avec AllMySat

Download on the App Store